Other Public Products
Issued by NWS Grand Forks, ND

Home | Current Version | Previous Version | Text Only | Print | Product List | Glossary Off
Versions: 1 2 3 4 5 6 7 8 9 10 11 12 13 14 15 16 17 18 19 20 21 22 23 24 25 26 27 28 29 30 31 32 33 34 35 36 37 38 39 40 41 42 43 44 45 46 47 48 49 50

000
FPUS83 KFGF 190031
OPUFGF
PRAIRIE TO PINES WEATHER ROUNDUP
NATIONAL WEATHER SERVICE EASTERN NORTH DAKOTA/GRAND FORKS ND
600 PM CST WED JAN 18 2017

 **SATELLITE DATA USED TO AUGMENT SKY COVER AT AUTOMATED STATIONS**
 *****  WEATHER ACROSS EASTERN NORTH DAKOTA  *****

CITY           SKY/WX    TMP DP  RH WIND       PRES   REMARKS
GRAND FORKS    FAIR      29  22  75 SE13      29.67S WCI  19
6HR MIN TEMP:  28; 6HR MAX TEMP:  33;

GRAND FORKS AF CLEAR     30  25  81 S7        29.67R WCI  23
GRAND CITY NWS NOT AVBL
BUXTON           N/A     29  25  87 SE12        N/A  WCI  19
DEVILS LAKE    FAIR      34  27  75 SE3       29.62S
6HR MIN TEMP:  34; 6HR MAX TEMP:  38; 6HR PCP: TRACE;

FARGO          FAIR      34  26  72 S12       29.72F
6HR MIN TEMP:  31; 6HR MAX TEMP:  36;

WAHPETON ARPT  FAIR      32  28  86 SE6       29.75S
$$

 *****  WEATHER ACROSS CENTRAL AND WESTERN NORTH DAKOTA  *****

CITY           SKY/WX    TMP DP  RH WIND       PRES   REMARKS
JAMESTOWN      FAIR      30  26  85 S3        29.65F
6HR MIN TEMP:  30; 6HR MAX TEMP:  39;

BISMARCK       FAIR      27  21  78 E5        29.66S WCI  22
6HR MIN TEMP:  25; 6HR MAX TEMP:  33;

MINOT          FAIR      40  28  62 S12       29.55S
6HR MIN TEMP:  40; 6HR MAX TEMP:  44;

MINOT AFB      CLEAR     38  29  70 SW15      29.53S
6HR MIN TEMP:  37; 6HR MAX TEMP:  42;

GARRISON         N/A     28  23  81 S9        29.59F WCI  19
6HR MIN TEMP:  28; 6HR MAX TEMP:  37;

WILLISTON      FAIR      31  24  75 SW6       29.57S
6HR MIN TEMP:  31; 6HR MAX TEMP:  42;

DICKINSON      FAIR      40  25  55 W14G20    29.60R
6HR MIN TEMP:  35; 6HR MAX TEMP:  40;

HETTINGER      FAIR      33  24  69 NW3       29.64S
6HR MIN TEMP:  30; 6HR MAX TEMP:  44;

$$

 *****  OTHER OBSERVATIONS NORTHEAST NORTH DAKOTA  *****

CITY           SKY/WX    TMP DP  RH WIND       PRES   REMARKS
WALHALLA       NOT AVBL
LANGDON        NOT AVBL
CAVALIER         N/A     30  27  86 S12       29.63F WCI  21
GRAFTON        FAIR      27  25  93 S13       29.67S WCI  16
CANDO          NOT AVBL
FORT TOTTEN      N/A     34  28  77 S7        29.95S
ROLLA            N/A    N/A N/A N/A MISG        N/A
RUGBY            N/A     32  27  80 S10       29.58R WCI  24
 ***** THE ABOVE OBSERVATIONS ARE NON NWS ARE NOT QUALITY
        CONTROLLED AND MAY MIS-REPORT RAIN FOR SNOW...
$$

 *****  OTHER OBSERVATIONS SOUTHEAST NORTH DAKOTA *****

CITY           SKY/WX    TMP DP  RH WIND       PRES   REMARKS
COOPERSTOWN    FAIR      28  25  86 S15       29.66R WCI  17
VALLEY CITY    FAIR      27  27 100 S9        29.69F WCI  17
OAKES          NOT AVBL
GWINNER        FAIR      30  27  86 SW12      29.72S WCI  21
SHEYENNE NWR     N/A     29  22  75 SW7       29.95S WCI  22
BUFFALO          N/A     30  22  71 SE9         N/A  WCI  21
WYNDMERE         N/A     28  27  93 SE2         N/A
 ***** THE ABOVE OBSERVATIONS ARE NON NWS ARE NOT QUALITY
       CONTROLLED AND MAY MIS-REPORT RAIN FOR SNOW...
$$

  *****  WEATHER ACROSS NORTHERN MINNESOTA  *****

CITY           SKY/WX    TMP DP  RH WIND       PRES   REMARKS
FLAG ISLAND    FAIR      28  21  74 SE10      29.68S WCI  19
WARROAD        FAIR      27  23  86 CALM      29.69S
ROSEAU         FAIR      28  21  74 S7        29.68S WCI  21
HALLOCK        FAIR      25  21  86 S15       29.66R WCI  12
THF RVR FALLS    N/A     29  23  78 S9        29.71R WCI  20
6HR MIN TEMP:  28; 6HR MAX TEMP:  34;

HALSTAD          N/A     29  25  82 S14         N/A  WCI  19
FOSSTON        FAIR      30  21  69 S8        29.73R WCI  23
BAUDETTE       FAIR      30  22  72 SE5       29.69S
6HR MIN TEMP:  28; 6HR MAX TEMP:  37;

WASKISH        FAIR      30  27  86 CALM      29.72R
CROOKSTON      FAIR      28  25  86 S15       29.71S WCI  17
$$
  *****  WEATHER ACROSS CENTRAL AND WEST MINNESOTA  *****

CITY           SKY/WX    TMP DP  RH WIND       PRES   REMARKS
BEMIDJI        FAIR      37  26  64 S9        29.73R
PARK RAPIDS    FAIR      29  20  69 S7        29.74S WCI  22
6HR MIN TEMP:  29; 6HR MAX TEMP:  38;

WADENA         FAIR      30  25  80 S5        29.76S
DETROIT LAKES  FAIR      36  27  69 S8        29.75S
MOORHEAD       FAIR      30  27  86 S10       29.74S WCI  21
FERGUS FALLS   FAIR      34  27  75 SE9       29.79S
ELBOW LAKE     FAIR      32  28  84 E8        29.75F FOG     WCI  25
6HR MIN TEMP:  31; 6HR MAX TEMP:  35;

MORRIS MN      FAIR      32  28  86 SE10      29.75S WCI  24
STAPLES        FAIR      32  25  74 CALM      29.77F
WHEATON        FAIR      36  34  93 SE7       29.76S
$$
  *****  WEATHER ELSEWHERE ACROSS MINNESOTA  *****

CITY           SKY/WX    TMP DP  RH WIND       PRES   REMARKS
DULUTH         FAIR      36  26  67 SW9       29.79S
6HR MIN TEMP:  35; 6HR MAX TEMP:  40;

INTRNTL FALLS  FAIR      30  22  72 SE5       29.72S
6HR MIN TEMP:  28; 6HR MAX TEMP:  38;

ELY            FAIR      28  23  80 CALM      29.75F
CLOQUET        FAIR      36  25  64 S6        29.80S
BRAINERD       FAIR      32  26  78 S8        29.79S WCI  25
6HR MIN TEMP:  31; 6HR MAX TEMP:  38;

HIBBING        FAIR      31  24  75 S3        29.77R
6HR MIN TEMP:  29; 6HR MAX TEMP:  41;

ALEXANDRIA     FAIR      32  26  78 SE6       29.77F
6HR MIN TEMP:  32; 6HR MAX TEMP:  38;

SAINT CLOUD    FAIR      31  28  89 S7        29.82S WCI  24
6HR MIN TEMP:  31; 6HR MAX TEMP:  38;

MINNEAPOLIS    FAIR      37  30  75 S6        29.86S
6HR MIN TEMP:  36; 6HR MAX TEMP:  41;

$$

  *****  WEATHER ACROSS SOUTH DAKOTA  *****

CITY           SKY/WX    TMP DP  RH WIND       PRES   REMARKS
SIOUX FALLS    FAIR      41  38  89 S10       29.80S
6HR MIN TEMP:  40; 6HR MAX TEMP:  45;

BROOKINGS      FAIR      34  31  88 SE9       29.77S
WATERTOWN      FAIR      31  26  82 S10       29.75S WCI  22
6HR MIN TEMP:  29; 6HR MAX TEMP:  35;

HURON          FAIR      32  28  85 E3        29.73F
6HR MIN TEMP:  30; 6HR MAX TEMP:  39;

SISSETON         N/A     35  29  78 SE6       29.71F
ABERDEEN       FAIR      24  19  81 S6        29.73R WCI  17
6HR MIN TEMP:  24; 6HR MAX TEMP:  33;

MITCHELL       FAIR      40  33  76 SE7       29.74F
PIERRE         FAIR      27  21  78 NE5       29.68S WCI  22
6HR MIN TEMP:  25; 6HR MAX TEMP:  35;

MOBRIDGE       FAIR      25  18  74 SE14      29.64F WCI  13
RAPID CITY     FAIR      32  24  72 SE3       29.62F
6HR MIN TEMP:  29; 6HR MAX TEMP:  41;

$$

  *****  SOME WEATHER IN NEARBY STATES *****

CITY           SKY/WX    TMP DP  RH WIND       PRES   REMARKS
GLASGOW MT     FAIR      35  28  75 SE10      29.52
GREAT FALLS MT FAIR      43  29  57 S14       29.52R
6HR MIN TEMP:  43; 6HR MAX TEMP:  49;

CHEYENNE WY    FAIR      42  17  36 W8        29.76F
6HR MIN TEMP:  42; 6HR MAX TEMP:  56;

SCOTTSBLUFF NE FAIR      44  26  49 S5        29.72F
6HR MIN TEMP:  42; 6HR MAX TEMP:  55;

OMAHA NE       FAIR      44  37  76 SE10      29.90S
6HR MIN TEMP:  41; 6HR MAX TEMP:  49;

DES MOINES IA  FAIR      39  34  82 S10       29.97S
6HR MIN TEMP:  38; 6HR MAX TEMP:  49;

DAVENPORT IA   FAIR      35  31  85 S5        30.06R
6HR MIN TEMP:  35; 6HR MAX TEMP:  39;

CHICAGO IL     CLOUDY    35  31  85 SW8       30.08R
6HR MIN TEMP:  34; 6HR MAX TEMP:  36;

EAU CLAIRE WI  FAIR      34  30  85 S6        29.89R
6HR MIN TEMP:  34; 6HR MAX TEMP:  39;

LA CROSSE WI   FAIR      36  30  79 S13       29.96S
6HR MIN TEMP:  35; 6HR MAX TEMP:  38;

$$

  *****  SOME NATIONAL WEATHER *****

CITY           SKY/WX    TMP DP  RH WIND       PRES   REMARKS
LA GUARDIA NY  CLOUDY    42  37  82 N9        30.04R
6HR MIN TEMP:  42; 6HR MAX TEMP:  45;                              C1F1C2F2C3F3C4F4C5F5C6F6C7F7C8F8C9F9CaFaCbFbCcFcCdFdCe!



USA.gov is the U.S. government's official web portal to all federal, state and local government web resources and services.